Tallevast, FL

8:12 AM EST on February 08, 2016 (GMT -0500)
Sarasota-bradenton

Weather History for KSRQ - October, 2013

Change the Weather History Date:

Friday, October 25, 2013

  Actual Average Record
Temperature  
Mean Temperature 71 °F 74 °F  
Max Temperature 82 °F 83 °F 91 °F (1971)
Min Temperature 60 °F 65 °F 44 °F (1937)
Degree Days  
Heating Degree Days 0 0  
Month to date heating degree days 0 0  
Since 1 July heating degree days 0 0  
Cooling Degree Days 6 9  
Month to date cooling degree days 329 304  
Year to date cooling degree days 3336 3093  
Growing Degree Days 21 (Base 50)    
Moisture  
Dew Point 55 °F    
Average Humidity 62    
Maximum Humidity 84    
Minimum Humidity 34    
Precipitation  
Precipitation 0.00 in 0.08 in 3.50 in (1921)
Month to date precipitation 0.55 2.66  
Year to date precipitation 51.11 48.09  
Sea Level Pressure  
Sea Level Pressure 30.17 in    
Wind  
Wind Speed 7 mph (NNE)    
Max Wind Speed 14 mph    
Max Gust Speed 20 mph    
Visibility 10 miles    
Events      
T = Trace of Precipitation, MM = Missing Value Source: NWS Daily Summary

Daily Weather History Graph

Daily Weather History Graph

Search for Another Location

Airport or City:

Trip Planner

Search our weather history database for the weather conditions in past years. The results will help you decide how hot, cold, wet, or windy it might be!

Date:

Astronomy

Oct. 25, 2013 Rise Set
Actual Time 7:36 AM EDT 6:51 PM EDT
Civil Twilight 7:12 AM EDT 7:15 PM EDT
Nautical Twilight 6:44 AM EDT 7:43 PM EDT
Astronomical Twilight 6:17 AM EDT 8:10 PM EDT
Moon No Moon Rise 1:07 PM EDT (10/25)
Length of Visible Light 12h 03m
Length of Day
11h 15m
Waning Gibbous, 62% of the Moon is Illuminated
Oct 25
Waning Gibbous
Oct 26
Last Quarter
Nov 3
New
Nov 10
First Quarter
Nov 17
Full

Hourly Weather History & Observations

Time (EDT) Temp. Dew Point Humidity Pressure Visibility Wind Dir Wind Speed Gust Speed Precip Events Conditions
12:53 AM 62.1 °F 55.9 °F 80% 30.16 in 10.0 mi NNE 4.6 mph - N/A   Clear
1:53 AM 62.1 °F 55.9 °F 80% 30.15 in 10.0 mi NE 4.6 mph - N/A   Clear
2:53 AM 62.1 °F 55.9 °F 80% 30.15 in 10.0 mi NNE 5.8 mph - N/A   Clear
3:53 AM 62.1 °F 55.9 °F 80% 30.14 in 10.0 mi NNE 5.8 mph - N/A   Clear
4:53 AM 61.0 °F 55.0 °F 81% 30.14 in 10.0 mi NNE 5.8 mph - N/A   Clear
5:53 AM 60.1 °F 55.0 °F 83% 30.16 in 10.0 mi NNE 6.9 mph - N/A   Clear
6:53 AM 60.1 °F 55.0 °F 83% 30.18 in 10.0 mi NNE 5.8 mph - N/A   Clear
7:53 AM 60.1 °F 55.0 °F 83% 30.20 in 10.0 mi NE 5.8 mph - N/A   Clear
8:53 AM 64.9 °F 57.0 °F 75% 30.22 in 10.0 mi NE 5.8 mph - N/A   Clear
9:53 AM 70.0 °F 57.9 °F 65% 30.23 in 10.0 mi NE 9.2 mph - N/A   Clear
10:53 AM 75.0 °F 55.0 °F 50% 30.23 in 10.0 mi NNE 9.2 mph - N/A   Clear
11:53 AM 77.0 °F 50.0 °F 39% 30.22 in 10.0 mi ENE 12.7 mph 18.4 mph N/A   Clear
12:53 PM 80.1 °F 52.0 °F 38% 30.20 in 10.0 mi NNE 10.4 mph - N/A   Clear
1:53 PM 79.0 °F 50.0 °F 36% 30.17 in 10.0 mi NE 8.1 mph - N/A   Clear
2:53 PM 82.0 °F 52.0 °F 35% 30.16 in 10.0 mi North 9.2 mph - N/A   Clear
3:53 PM 82.0 °F 51.1 °F 34% 30.14 in 10.0 mi North 9.2 mph - N/A   Clear
4:53 PM 81.0 °F 52.0 °F 36% 30.14 in 10.0 mi North 8.1 mph - N/A   Clear
5:53 PM 79.0 °F 52.0 °F 39% 30.14 in 10.0 mi North 6.9 mph - N/A   Clear
6:53 PM 73.9 °F 53.1 °F 48% 30.15 in 10.0 mi North 5.8 mph - N/A   Clear
7:23 PM 73.4 °F 55.4 °F 53% 30.15 in 10.0 mi NNE 4.6 mph - N/A   Partly Cloudy
7:53 PM 71.1 °F 55.9 °F 59% 30.16 in 10.0 mi NNE 4.6 mph - N/A   Clear
8:53 PM 69.1 °F 57.9 °F 68% 30.17 in 10.0 mi North 6.9 mph - N/A   Clear
9:53 PM 69.1 °F 59.0 °F 70% 30.19 in 10.0 mi North 4.6 mph - N/A   Clear
10:53 PM 68.0 °F 59.0 °F 73% 30.20 in 10.0 mi North 5.8 mph - N/A   Clear
11:53 PM 64.9 °F 59.0 °F 81% 30.20 in 10.0 mi East 6.9 mph - N/A   Clear